Flag for Slovenia Weather past 2 weeks in Ljubljana, Slovenia

Now
75 °F

Passing clouds.


Feels Like: 77 °F
Forecast: 56 / 76 °F
Wind: 1 mph from Southwest

Location: Ljubljana Airport / Brnik

Current Time: Jul 23, 2014 at 11:52:41 AM

Latest Report: Jul 23, 2014 at 11:00 AM


Visibility: N/A

Pressure: 29.89 "Hg

Humidity: 69%

Dew point: 64 °F

Location of LjubljanaLocation

Historic Weather in Ljubljana — Graph

°F

Ljubljana temperature yesterday

Maximum temperature yesterday: 68 °F (at 1:00 PM)
Minimum temperature yesterday: 57 °F (at 2:00 AM)
Average temperature yesterday: 62 °F

Past Weeks' High & Low Weather Summary

 TemperatureHumidityPressure
High86 °F (Jul 19, 3:00 PM)100% (Jul 9, 2:00 AM)30.15 "Hg (Jul 9, 2:00 AM)
Low54 °F (Jul 11, 3:30 AM)37% (Jul 18, 2:00 PM)29.68 "Hg (Jul 9, 2:30 AM)
Average67 °F80%29.93 "Hg
* Reported Jul 8 10:00 AM — Jul 23 10:00 AM, Ljubljana, Weather by CustomWeather, © 2014

Note: Actual official high and low records may vary slightly from our data, if they occured in-between our weather recording intervals... More about our weather records

Advertising

Ljubljana weather history for previous 24 hours

 ConditionsComfort  
Time TempWeatherWind HumidityBarometerVisibility
10:00 AM
Jul 23
72 °FPassing clouds.3 mph78%29.86 "HgN/A
8:00 AM64 °FBroken clouds.1 mph94%29.89 "Hg5 mi
7:30 AM64 °FPartly sunny.1 mph94%29.89 "Hg4 mi
7:00 AM63 °FBroken clouds.2 mph100%29.89 "Hg4 mi
6:30 AM63 °FFog.No wind100%29.89 "Hg2 mi
6:00 AM63 °FFog.1 mph100%29.86 "Hg2 mi
5:30 AM63 °FPartly cloudy.No wind100%29.86 "Hg4 mi
5:00 AM63 °FLight rain. Fog.No wind100%29.86 "Hg4 mi
4:30 AM63 °FLight rain. Fog.1 mph100%29.86 "Hg4 mi
4:00 AM63 °FLight rain. Fog.1 mph100%29.86 "Hg4 mi
3:30 AM63 °FLight rain. Fog.1 mph100%29.86 "Hg4 mi
3:00 AM63 °FLight rain. Fog.No wind100%29.86 "Hg4 mi
2:30 AM63 °FLight rain. Light fog.No wind100%29.86 "Hg4 mi
2:00 AM64 °FLight rain. Fog.1 mph94%29.86 "Hg3 mi
1:00 AM64 °FLight rain. Dense fog.1 mph94%29.89 "Hg2 mi
7:00 PM
Jul 22
64 °FRain. Broken clouds.2 mph100%29.83 "Hg2 mi
6:30 PM64 °FRain. Broken clouds.2 mph100%29.83 "Hg4 mi
6:00 PM64 °FRain showers. Broken clouds.1 mph94%29.83 "Hg2 mi
5:30 PM66 °FLight rain. Broken clouds.No wind88%29.83 "HgN/A
5:00 PM66 °FBroken clouds.3 mph88%29.83 "HgN/A
4:30 PM66 °FBroken clouds.5 mph94%29.83 "HgN/A
4:00 PM68 °FBroken clouds.3 mph88%29.83 "HgN/A
3:30 PM68 °FBroken clouds.1 mph83%29.83 "HgN/A
3:00 PM66 °FLight rain. Broken clouds.2 mph88%29.83 "HgN/A
2:30 PM66 °FLight rain. Broken clouds.2 mph88%29.83 "HgN/A
2:00 PM66 °FLight rain. Broken clouds.2 mph83%29.83 "HgN/A
1:30 PM66 °FBroken clouds.2 mph83%29.83 "HgN/A
1:00 PM68 °FBroken clouds.1 mph78%29.83 "HgN/A
12:30 PM66 °FBroken clouds.1 mph83%29.83 "HgN/A
12:00 PM64 °FBroken clouds.2 mph88%29.83 "HgN/A
11:30 AM64 °FBroken clouds.2 mph83%29.83 "HgN/A
11:00 AM64 °FPartly sunny.2 mph83%29.83 "HgN/A
Weather by CustomWeather, © 2014

See weather overviewHow to use our weather pages